Regional Weather Roundup
Issued by NWS

Home | Current Version | Previous Version | Graphics & Text | Print | Product List | Glossary On
Versions: 1 2 3 4 5 6 7 8 9 10 11 12 13 14 15 16 17 18 19 20 21 22 23 24 25 26 27 28 29 30 31 32 33 34 35 36 37 38 39 40 41 42 43 44 45 46 47 48 49 50
000
ASUS43 KLOT 040808
RWRIL

ILLINOIS REGIONAL WEATHER ROUNDUP
NATIONAL WEATHER SERVICE CHICAGO/ROMEOVILLE IL
300 AM CDT TUE AUG 04 2015

NOTE: "FAIR" INDICATES FEW OR NO CLOUDS BELOW 12,000 FEET WITH NO
SIGNIFICANT WEATHER AND/OR OBSTRUCTIONS TO VISIBILITY.

* THESE STATIONS ARE NOT UNDER NWS QUALITY CONTROL. THEY ALSO MAY NOT
  REPORT WEATHER SUCH AS PRECIPITATION OR FOG.

ILZ001-002-007-009-015-016-024-040900-
NORTHWEST ILLINOIS

CITY           SKY/WX    TMP DP  RH WIND       PRES   REMARKS
MOLINE         CLEAR     61  56  83 CALM      29.94F
STERLING*      CLEAR     59  54  82 W3        29.91S
SAVANNA*       CLEAR     57  55  93 CALM      29.94S
$$

ILZ003-004-008-010-011-017-018-040900-
NORTH CENTRAL ILLINOIS

CITY           SKY/WX    TMP DP  RH WIND       PRES   REMARKS
ROCKFORD       CLEAR     59  54  83 S3        29.94S
FREEPORT*      CLEAR     54  52  92 CALM      29.96R
ROCHELLE*      CLEAR     54  53  96 CALM      29.94S
DE KALB*       CLEAR     60  55  82 W6        29.94R
PERU*          CLEAR     60  55  83 W5        29.94S
$$

ILZ005-006-012>014-019>023-040900-
NORTHEAST ILLINOIS

CITY           SKY/WX    TMP DP  RH WIND       PRES   REMARKS
CHICAGO-OHARE  CLEAR     63  55  75 W3        29.91S
CHICAGO-MIDWAY CLEAR     68  55  63 CALM      29.91S
AURORA         CLEAR     57  53  86 W3        29.93S
LANSING*       CLEAR     60  55  82 SW3       29.92S
JOLIET*        CLEAR     61  57  87 CALM      29.93S
WAUKEGAN       CLEAR     60  56  86 W3        29.90F
DUPAGE AIRPORT CLEAR     60  55  83 CALM      29.92S
KANKAKEE*      CLEAR     61  57  87 CALM      29.93F
WHEELING       CLEAR     64  54  69 NW3       29.92S
MORRIS*        CLEAR     58  56  90 W5        29.92S
ROMEOVILLE*    CLEAR     59  55  86 W5        29.92S
NORTHERLY ISL    N/A     70  54  56 W7          N/A
$$

LMZ740>746-040900-
SOUTHERN LAKE MICHIGAN

STATION/POSITION SKY/WX   TEMP    WIND        PRES    VSBY  WAVE
                          AIR SEA DIR/SP/G                  HT/PER
                          (F)     (DEG/KT/KT) (MB)    (MI)  (FT/S)
HARRISON CRIB              71     290/ 10/ 11   N/A
BURNHAM HARBOR             70     260/  6/  8   N/A
CALUMET HARBOR             69     250/  4/  6   N/A
BURNS HARBOR               69     200/  7/  7 1013.2S
MICHIGAN CITY              67     180/  7/  8   N/A
MICHIGAN CITY 6N           73 74  300/ 10/ 12   N/A           2/ 3
ST. JOSEPH                 72 73  340/ 12/ 14   N/A           2/ 2
$$

ILZ025>027-034>036-040-047-049-050-058-095>099-040900-
WEST-CENTRAL ILLINOIS

CITY           SKY/WX    TMP DP  RH WIND       PRES   REMARKS
QUINCY         MOCLDY    66  61  84 NE7       29.95F
GALESBURG*     CLEAR     56  56  97 CALM      29.95F
MACOMB*        MOCLDY    59  58  97 CALM      29.98S
JACKSONVILLE*  PTCLDY    66  63  89 CALM      29.95S
PITTSFIELD*    CLOUDY    71  66  84 CALM      29.97R
$$

ILZ028>032-037-038-041>044-048-051>054-059>061-040900-
CENTRAL ILLINOIS

CITY           SKY/WX    TMP DP  RH WIND       PRES   REMARKS
PONTIAC        CLEAR     59  58  96 CALM      29.95S
BLOOMINGTON    CLEAR     63  59  87 CALM      29.96S
DECATUR        CLEAR     63  60  90 CALM      29.95R
PEORIA         CLEAR     65  58  78 N3        29.95S
LACON*         CLEAR     60  57  91 CALM      29.94S
LINCOLN*       PTCLDY    62  59  90 N5        29.94F
SPRINGFIELD    CLEAR     65  61  87 CALM      29.95S
TAYLORVILLE    PTCLDY    63  63 100 CALM      29.95S
$$

ILZ033-039-045-046-055>057-062-063-040900-
EAST-CENTRAL ILLINOIS

CITY           SKY/WX    TMP DP  RH WIND       PRES   REMARKS
CHAMPAIGN      CLEAR     60  57  89 CALM      29.95R
DANVILLE*      CLEAR     56  56  98 CALM      29.92S
RANTOUL*       CLEAR     63  58  86 CALM      29.94S
MATTOON        CLEAR     65  59  81 CALM      29.94S
PARIS*         CLEAR     59  58  98 CALM      29.95S
$$

ILZ079-100>102-040900-
SOUTHWEST ILLINOIS

CITY           SKY/WX    TMP DP  RH WIND       PRES   REMARKS
ALTON          MOCLDY    71  68  91 CALM      29.95R
BELLEVILLE     PTCLDY    73  73  98 N2        29.92F
CAHOKIA*       PTCLDY    74  69  85 CALM      29.93S
SPARTA*        CLEAR     74  71  89 CALM      29.95R
$$

ILZ064>066-069>071-074>076-080>082-084>086-088>090-092>094-040900-
SOUTH-CENTRAL ILLINOIS

CITY           SKY/WX    TMP DP  RH WIND       PRES   REMARKS
CARBONDALE     CLEAR     74  72  93 CALM      29.93S FOG
CAIRO*         PTCLDY    73  72  98 CALM      29.92S
EFFINGHAM*     MOCLDY    71  61  70 CALM      29.96S
MARION         CLEAR     73  73 100 CALM      29.94S FOG
MT. VERNON     PTCLDY    70  64  83 CALM      29.95S
CENTRALIA*     PTCLDY    70  67  89 CALM      29.94S
SALEM*         PTCLDY    71  68  90 CALM      29.94
METROPOLIS*    PTCLDY    74  74 100 CALM      29.94R FOG
$$

ILZ067-068-072-073-078-083-087-091-040900-
SOUTHEAST ILLINOIS

CITY           SKY/WX    TMP DP  RH WIND       PRES   REMARKS
LAWRENCEVILLE  MOCLDY    73  66  78 NE3       29.94S
FLORA*         PTCLDY    70  66  88 N3        29.95R
FAIRFIELD*     PTCLDY    71  68  92 CALM      29.93S
HARRISBURG*    PTCLDY    72  72 100 CALM      29.95S
ROBINSON*      CLOUDY    69  66  91 CALM      29.95R
CARMI*         MOCLDY    71  67  87 CALM      29.93S FOG
$$

ABBREVIATIONS USED IN REMARKS
   TC - TEMPERATURE IN CELSIUS
  WCI - WIND CHILL INDEX
   HX - HEAT INDEX
  VSB - VISIBILITY
$$



USA.gov is the U.S. government's official web portal to all federal, state and local government web resources and services.